GW4950 Weather Reports


time (UTC)temp
C
wind
direction
speed
KPH
gust
KPH
rain 1hr
cm
rain 24hr
cm
rain mn
cm
humidity
%
barometer
mb
20260508064542 9 80 0.0 4.8 0.00 0.08 0.05 86 1010.6
20260508063057 8 75 3.2 8.0 0.03 0.08 0.05 86 1010.4
20260508061600 8 55 0.0 0.0 0.05 0.08 0.05 87 1010.6
20260508061503 8 55 0.0 0.0 0.05 0.08 0.05 87 1010.7
20260508060059 8 51 1.6 6.4 0.05 0.08 0.05 88 1010.2
20260508054517 8 4 0.0 0.0 0.05 0.08 0.05 90 1010.6
20260508053009 8 4 0.0 0.0 0.05 0.05 0.05 91 1010.7
20260508051534 7 4 0.0 4.8 0.03 0.05 0.03 91 1010.7
20260508050023 7 4 0.0 0.0 0.00 0.03 0.00 91 1010.7
20260508044545 7 4 0.0 0.0 0.00 0.03 0.00 91 1010.5
20260508043041 7 4 0.0 0.0 0.00 0.03 0.00 91 1010.2
20260508041508 7 4 0.0 0.0 0.00 0.03 0.00 91 1010.2
20260508040055 7 4 0.0 0.0 0.00 0.03 0.00 91 1010.1
20260508034538 7 4 0.0 0.0 0.00 0.03 0.00 91 1010.0
20260508033025 7 4 0.0 0.0 0.00 0.03 0.00 91 1010.1
20260508031527 6 4 0.0 0.0 0.00 0.03 0.00 91 1010.1
20260508030013 6 4 0.0 0.0 0.00 0.03 0.00 91 1010.0
20260508024535 6 4 0.0 4.8 0.00 0.03 0.00 91 1010.0
20260508021559 6 4 0.0 4.8 0.00 0.03 0.00 90 1010.0
20260508020003 6 4 0.0 6.4 0.00 0.03 0.00 90 1010.2
20260508014519 6 4 0.0 4.8 0.00 0.03 0.00 90 1010.6
20260508013007 6 4 1.6 4.8 0.00 0.03 0.00 90 1010.8
20260508011534 6 4 0.0 0.0 0.00 0.03 0.00 90 1010.7
20260508010032 6 4 0.0 0.0 0.00 0.03 0.00 90 1010.8
20260508004536 6 4 0.0 3.2 0.00 0.03 0.00 89 1011.0
20260508003024 6 4 0.0 0.0 0.00 0.03 0.00 89 1011.0
20260508001544 6 4 0.0 4.8 0.00 0.03 0.00 88 1011.1
20260508000031 6 50 3.2 6.4 0.00 0.03 0.00 89 1011.2
20260507234557 6 50 0.0 0.0 0.00 0.03 0.03 89 1011.3
20260507233042 6 50 0.0 0.0 0.00 0.03 0.03 88 1011.6
20260507231517 6 50 0.0 0.0 0.00 0.03 0.03 86 1011.8
20260507230114 6 50 0.0 0.0 0.00 0.03 0.03 86 1011.7
20260507230000 6 50 0.0 0.0 0.00 0.03 0.03 86 1011.7
20260507224530 6 50 0.0 0.0 0.00 0.03 0.03 86 1011.7
20260507223040 6 50 0.0 0.0 0.00 0.03 0.03 85 1011.7
20260507221545 7 50 0.0 0.0 0.00 0.03 0.03 85 1011.9
20260507220044 7 50 0.0 0.0 0.00 0.03 0.03 85 1011.9
20260507214559 7 50 0.0 0.0 0.00 0.03 0.03 83 1011.7
20260507213034 7 50 3.2 6.4 0.00 0.03 0.03 83 1011.5
20260507211553 8 50 0.0 0.0 0.00 0.03 0.03 83 1011.5
20260507210043 8 50 0.0 0.0 0.00 0.03 0.03 82 1011.3
20260507204525 8 50 0.0 0.0 0.00 0.03 0.03 82 1011.1
20260507203037 8 50 0.0 4.8 0.00 0.03 0.03 81 1010.7
20260507201526 8 50 0.0 3.2 0.00 0.03 0.03 79 1010.5
20260507200035 9 50 0.0 0.0 0.00 0.03 0.03 80 1010.3
20260507194532 9 50 3.2 6.4 0.00 0.03 0.03 77 1010.0
20260507193037 10 50 3.2 4.8 0.00 0.03 0.03 75 1009.8
20260507191544 11 50 3.2 6.4 0.00 0.03 0.03 71 1009.7
20260507190040 11 50 0.0 4.8 0.00 0.03 0.03 69 1009.3
20260507184554 12 50 0.0 0.0 0.00 0.03 0.03 66 1009.2
20260507183043 12 50 0.0 3.2 0.00 0.03 0.03 64 1009.1
20260507181508 13 50 0.0 8.0 0.00 0.03 0.03 62 1009.0
20260507180058 13 37 6.4 14.5 0.00 0.03 0.03 63 1008.7
20260507174521 13 118 0.0 9.7 0.00 0.03 0.03 62 1008.9
20260507173015 13 87 3.2 11.3 0.00 0.03 0.03 64 1008.8
20260507171529 13 48 4.8 16.1 0.00 0.03 0.03 64 1008.8
20260507170020 14 19 9.7 17.7 0.00 0.03 0.03 69 1008.9
20260507164536 14 17 9.7 16.1 0.00 0.03 0.03 71 1009.0
20260507163021 13 29 8.0 16.1 0.00 0.03 0.03 71 1009.1
20260507161551 12 20 4.8 12.9 0.00 0.03 0.03 75 1009.0
20260507160044 12 32 8.0 17.7 0.00 0.03 0.03 75 1008.9
20260507154547 11 36 4.8 12.9 0.00 0.03 0.03 76 1008.8
20260507153042 11 64 1.6 8.0 0.00 0.03 0.03 77 1009.1
20260507151508 11 70 1.6 11.3 0.00 0.03 0.03 77 1009.2
20260507144541 10 48 0.0 11.3 0.00 0.03 0.03 83 1009.4
20260507143040 10 36 8.0 16.1 0.03 0.03 0.03 84 1009.3
20260507141505 10 59 4.8 11.3 0.03 0.03 0.03 85 1009.2
20260507140054 10 109 4.8 14.5 0.03 0.03 0.03 86 1009.0
20260507134511 10 103 9.7 16.1 0.03 0.03 0.03 85 1009.0
20260507133058 10 112 12.9 22.5 0.00 0.00 0.00 80 1008.9
20260507131522 13 128 12.9 25.7 0.00 0.00 0.00 64 1008.8
20260507130109 14 112 9.7 19.3 0.00 0.00 0.00 64 1008.2
20260507124549 15 77 8.0 17.7 0.00 0.00 0.00 62 1008.2
20260507123041 15 73 8.0 16.1 0.00 0.00 0.00 60 1008.2
20260507121603 16 254 4.8 14.5 0.00 0.00 0.00 56 1008.2
20260507121501 16 249 8.0 14.5 0.00 0.00 0.00 56 1008.2
20260507120048 16 106 4.8 11.3 0.00 0.00 0.00 62 1008.3
20260507114557 16 67 4.8 11.3 0.00 0.00 0.00 59 1008.6
20260507113034 16 106 1.6 8.0 0.00 0.00 0.00 59 1009.0
20260507111521 14 189 0.0 11.3 0.00 0.00 0.00 64 1009.4
20260507110007 15 123 6.4 14.5 0.00 0.00 0.00 62 1009.4
20260507104528 14 139 3.2 14.5 0.00 0.00 0.00 62 1009.6
20260507103023 13 119 8.0 22.5 0.00 0.00 0.00 65 1009.8
20260507101540 13 142 8.0 16.1 0.00 0.00 0.00 65 1010.0
20260507100023 13 108 6.4 12.9 0.00 0.00 0.00 67 1010.0
20260507094536 12 110 4.8 14.5 0.00 0.00 0.00 69 1010.0
20260507093025 12 99 8.0 14.5 0.00 0.00 0.00 71 1009.9
20260507091545 12 127 8.0 11.3 0.00 0.00 0.00 71 1010.1
20260507090033 12 101 6.4 11.3 0.00 0.00 0.00 71 1010.0
20260507084600 12 58 1.6 14.5 0.00 0.00 0.00 71 1009.9
20260507083044 12 78 6.4 11.3 0.00 0.00 0.00 74 1009.8
20260507081605 11 73 8.0 12.9 0.00 0.00 0.00 74 1009.8
20260507080053 11 102 8.0 16.1 0.00 0.00 0.00 74 1009.8
20260507074508 11 78 6.4 17.7 0.00 0.00 0.00 74 1009.9
20260507073010 11 73 4.8 12.9 0.00 0.00 0.00 75 1009.8
20260507071536 11 88 3.2 12.9 0.00 0.00 0.00 75 1009.8
20260507070035 11 71 6.4 14.5 0.00 0.00 0.00 75 1009.6